Regional Weather Roundup
Issued by NWS

Home | Current Version | Previous Version | Graphics & Text | Print | Product List | Glossary On
Versions: 1 2 3 4 5 6 7 8 9 10 11 12 13 14 15 16 17 18 19 20 21 22 23 24 25 26 27 28 29 30 31 32 33 34 35 36 37 38 39 40 41 42 43 44 45 46 47 48 49 50
000
ASUS43 KLSX 300459
RWRMO

WEATHER SUMMARY FOR MISSOURI
NATIONAL WEATHER SERVICE SPRINGFIELD MO
1100 PM CST THU JAN 29 2015

NOTE: "FAIR" INDICATES FEW OR NO CLOUDS BELOW 12,000 FEET WITH NO
       SIGNIFICANT WEATHER AND/OR OBSTRUCTIONS TO VISIBILITY.
       CURRENT SKY AND/OR WEATHER CONDITIONS ARE NOT AVAILABLE FOR
       CHILLICOTHE AND FARMINGTON.

MOZ001>031-035>038-043-044-053-054-300600-
...NORTHERN AND WESTERN MISSOURI...

CITY           SKY/WX    TMP DP  RH WIND       PRES   REMARKS
KANSAS CTY INT CLEAR     28  22  78 N7        30.52R WCI  21
KANSAS C DTWN  CLEAR     30  23  75 CALM      30.53R
LEE`S SUMMIT   CLEAR     30  22  72 N6        30.51S WCI  24
ST JOSEPH      CLEAR     21  18  88 N5        30.54S WCI  15
CHILLICOTHE      N/A     30  23  75 NW3       30.53R
KIRKSVILLE     CLEAR     28  21  75 NW6       30.48R WCI  22

$$
MOZ066>068-077>081-088>096-101>105-300600-
...SOUTHWEST MISSOURI...

CITY           SKY/WX    TMP DP  RH WIND       PRES   REMARKS
SPRINGFIELD    CLEAR     28  23  81 N7        30.47R WCI  21
JOPLIN         CLEAR     31  25  78 N6        30.51S WCI  25

$$
MOZ032>034-039>042-045>050-055>058-069>072-300600-
...CENTRAL MISSOURI...

CITY           SKY/WX    TMP DP  RH WIND       PRES   REMARKS
COLUMBIA       CLOUDY    33  24  69 NW12      30.47R WCI  24
JEFFERSON CITY CLOUDY    37  24  59 N10       30.49R WCI  30
ROLLA          CLOUDY    35  24  64 NW12      30.43R WCI  27
SEDALIA        MOCLDY    33  24  69 N13       30.51S WCI  24
OSAGE BEACH    CLOUDY    36  23  60 NW6G16    30.48R

$$
MOZ051-052-059>065-300600-
...EAST CENTRAL MISSOURI...

CITY           SKY/WX    TMP DP  RH WIND       PRES   REMARKS
ST LOUIS INTL  CLOUDY    37  25  61 NW12      30.43R WCI  29
SPIRIT OF STL  CLOUDY    37  25  61 NW7       30.43R
ST CHARLES     CLOUDY    36  25  64 NW12      30.43R WCI  28

$$
MOZ072>076-082>087-097>100-106>115-300600-
...SOUTH CENTRAL AND SOUTHEAST MISSOURI...

CITY           SKY/WX    TMP DP  RH WIND       PRES   REMARKS
CAPE GIRARDEAU CLOUDY    39  29  67 NW10      30.41R
FARMINGTON     CLOUDY    36  23  60 NW13G22   30.43R WCI  27
POPLAR BLUFF   MOCLDY    39  28  64 N12       30.41R
WEST PLAINS    PTCLDY    33  25  72 NW6       30.42R WCI  28

$$



USA.gov is the U.S. government's official web portal to all federal, state and local government web resources and services.